Location: Nairn
(57.5833°N, 3.8667°W)
Time: 01:38:39
(UTC+00:00)

CZ-4 R/B - Pass Details

Date: 07 August 2020
Orbit: 682 x 752 km, 98.5° (Epoch: 19 September)

Event Time Altitude Azimuth Distance (km) Brightness Sun altitude
Rises 00:55:34 0° 17° (NNE) 3,172 9.0 -15.7°
Reaches altitude 10° 00:57:51 10° 19° (NNE) 2,255 7.8 -15.7°
Maximum altitude 01:02:49 76° 106° (ESE) 773 4.0 -15.6°
Enters shadow 01:05:45 25° 188° (S) 1,471 4.8 -15.5°
